Content
SEND FEEDBACK

Daily
Averages
Monthly
Summary
Greece

MITILINI, GREECE


Home > Europe > Greece
Elevation: 16 feet     Latitude: 39 04N     Longitude: 026 36E

WEATHER
 
SELECT A DAY
Number of Records: 88,172;   Date Range: 7/9/96 - 7/11/14
 
SHARE

PRINT THIS DATA

[ ← Previous Day ]
WEATHER ALMANAC - APRIL 26, 2013
[ Next Day → ]
[ °C ]   °F
Weather ElementAverageHighLow
Temperature68.9 °F80.6 °F (3:50 pm)57.2 °F (4:50 am)
Dewpoint51.6 °F55.4 °F (10:20 am)46.4 °F (6:20 am)
Humidity55 %82 % (4:50 am)27 % (3:00 pm)
Barometer30.08 in30.17 in (3:00 am)30.01 in (6:20 pm)
Wind Speed4.5 mph8.1 mph (10:20 am)
Weather ElementAverage
Visibility8.3 mi
Wind DirectionE (84.8 °)

Weather ElementTotal
Precipitation---
Cooling Degree Days3.9 (Base 65)
Growing Degree Days18.9 (Base 50)
Averaged from 46 records on April 26, 2013
WEATHER CONDITIONS BREAKOUT
WIND DIRECTION BREAKOUT
WEATHER BY HOUR - APRIL 26, 2013
[ °C ]   °F
Local TimeTemperatureDewpointHumidityBarometerVisibilityWind DirectionWind SpeedGust SpeedPrecipitationEventsConditions
1:50 AM59.0 °F51.8 °F77 %30.15 inCalmClear
3:00 AM59.0 °F51.0 °F68 %30.17 in6.0 miCalm
3:50 AM59.0 °F50.0 °F72 %30.15 inCalmClear
4:20 AM59.0 °F50.0 °F72 %30.15 inCalmClear
4:50 AM57.2 °F51.8 °F82 %30.12 inCalmClear
5:20 AM57.2 °F51.8 °F82 %30.12 inCalmClear
5:50 AM59.0 °F48.2 °F67 %30.12 inWest (280°)5.8 mphClear
6:20 AM59.0 °F46.4 °F63 %30.12 inVariable3.5 mphClear
6:50 AM59.0 °F46.4 °F63 %30.12 inVariable2.3 mphClear
7:20 AM59.0 °F46.4 °F63 %30.12 inCalmClear
7:50 AM60.8 °F48.2 °F63 %30.12 inCalmClear
8:20 AM62.6 °F50.0 °F63 %30.12 inVariable2.3 mphClear
8:50 AM64.4 °F51.8 °F64 %30.12 inNorth (10°)4.6 mphClear
9:00 AM65.0 °F52.0 °F54 %30.15 in9.0 miNorth (10°)4.6 mph
9:20 AM66.2 °F53.6 °F64 %30.12 inNNE (20°)5.8 mphClear
9:50 AM66.2 °F53.6 °F64 %30.12 inNorth (10°)6.9 mphClear
10:20 AM68.0 °F55.4 °F64 %30.12 inNNE (20°)8.1 mphClear
10:50 AM68.0 °F55.4 °F64 %30.12 inNNE (20°)8.1 mphClear
11:20 AM69.8 °F55.4 °F60 %30.12 inNNE (20°)8.1 mphClear
11:50 AM69.8 °F55.4 °F60 %30.12 inNorth (10°)6.9 mphClear
12:20 PM71.6 °F55.4 °F57 %30.12 inNNE (20°)8.1 mphClear
12:50 PM73.4 °F55.4 °F53 %30.09 inNNE (20°)8.1 mphClear
1:20 PM73.4 °F55.4 °F53 %30.09 inNNE (20°)8.1 mphClear
1:50 PM75.2 °F53.6 °F47 %30.09 inNNE (20°)8.1 mphClear
2:20 PM75.2 °F53.6 °F47 %30.09 inNNE (20°)6.9 mphClear
2:50 PM77.0 °F50.0 °F39 %30.06 inNorth (10°)6.9 mphClear
3:00 PM77.0 °F49.0 °F27 %30.09 in9.0 miNorth (10°)6.9 mph
3:20 PM77.0 °F50.0 °F39 %30.06 inNorth (10°)8.1 mphClear
3:50 PM80.6 °F46.4 °F30 %30.06 inNorth (10°)6.9 mphClear
4:20 PM80.6 °F46.4 °F30 %30.04 inNorth (360°)8.1 mphClear
4:50 PM78.8 °F50.0 °F36 %30.04 inNorth (360°)6.9 mphClear
5:20 PM78.8 °F51.8 °F39 %30.04 inNorth (10°)6.9 mphClear
5:50 PM77.0 °F53.6 °F44 %30.04 inNorth (360°)5.8 mphClear
6:20 PM77.0 °F53.6 °F44 %30.01 inNNE (20°)4.6 mphClear
6:50 PM78.8 °F53.6 °F42 %30.01 inNW (320°)5.8 mphClear
7:20 PM78.8 °F53.6 °F42 %30.01 inNW (310°)5.8 mphClear
7:50 PM77.0 °F53.6 °F44 %30.01 inNW (310°)4.6 mphClear
8:20 PM75.2 °F51.8 °F44 %30.01 inCalmClear
8:50 PM69.8 °F51.8 °F53 %30.01 inCalmClear
9:00 PM70.0 °F52.0 °F43 %30.02 in9.0 miCalm
9:20 PM69.8 °F51.8 °F53 %30.01 inCalmClear
9:50 PM66.2 °F55.4 °F68 %30.04 inCalmClear
10:20 PM66.2 °F53.6 °F64 %30.04 inWNW (300°)6.9 mphClear
10:50 PM66.2 °F50.0 °F56 %30.04 inWNW (300°)6.9 mphClear
11:20 PM66.2 °F50.0 °F56 %30.04 inWest (270°)5.8 mphClear
11:50 PM66.2 °F48.2 °F52 %30.01 inWest (270°)5.8 mphClear
Hourly data recorded from LGMT, located miles away from Mitilini, Greece







STORIES FROM OUR PARTNERS